This demonstration page uses our WeatherBlox Daily Observations layout. Learn more.

Left ArrowRight Arrow

44.89941, -97.11507

Hourly Observations for February 25, 2021

Temp ( °F °C ) Dew Point ( °F °C ) Humidity (%) Winds ( mph kmh ) Pressure ( in mb ) Visibility ( mi km ) Precip ( " mm )
12:24 am 00:24 Cloudy 29 -1.7 26 -3.3 89 89 NNW 15 24 30.36 1028 10 16 0.00 0.00
12:53 am 00:53 Cloudy 26 -3.3 23 -5 88 88 NW 12 19 30.34 1028 10 16 0.00 0.00
1:53 am 01:53 Mostly Cloudy 23 -5 21 -6.1 92 92 NNW 9 15 30.36 1028 10 16 0.00 0.00
2:53 am 02:53 Mostly Clear 20 -6.7 18 -7.8 92 92 W 3 6 30.35 1028 9 14 0.00 0.00
3:53 am 03:53 Clear 20 -6.7 19 -7.2 96 96 W 3 6 30.35 1028 9 14 0.00 0.00
4:53 am 04:53 Mostly Clear 17 -8.3 16 -8.9 95 95 WSW 8 13 30.36 1028 7 11 0.00 0.00
5:37 am 05:37 Mostly Cloudy 19 -7.2 18 -7.8 96 96 WSW 9 15 30.42 1030 7 11 0.00 0.00
5:44 am 05:44 Partly Cloudy 18 -7.8 17 -8.3 96 96 WSW 9 15 30.43 1030 7 11 0.00 0.00
5:53 am 05:53 Mostly Clear with Mist and Fog 18 -7.8 17 -8.3 96 96 WSW 8 13 30.37 1028 6 10 0.00 0.00
6:21 am 06:21 Mostly Clear with Mist and Fog 17 -8.3 16 -8.9 95 95 SW 8 13 30.42 1030 2 3 0.00 0.00
6:24 am 06:24 Mostly Cloudy with Mist and Fog 18 -7.8 17 -8.3 96 96 SW 8 13 30.42 1030 1 2 0.00 0.00
6:31 am 06:31 Mostly Cloudy with Freezing Fog 19 -7.2 18 -7.8 96 96 SW 9 15 30.41 1030 0 0 0.00 0.00
6:53 am 06:53 Mostly Cloudy with Freezing Fog 19 -7.2 18 -7.8 96 96 WSW 9 15 30.35 1028 1 1 0.00 0.00
7:31 am 07:31 Cloudy with Freezing Fog 19 -7.2 19 -7.2 100 100 WSW 12 19 30.41 1030 0 0 0.00 0.00
7:53 am 07:53 Mostly Cloudy with Mist and Fog 19 -7.2 19 -7.2 100 100 WSW 7 11 30.35 1028 1 2 0.00 0.00
7:57 am 07:57 Mostly Cloudy with Mist and Fog 19 -7.2 19 -7.2 100 100 WSW 8 13 30.41 1030 2 3 0.00 0.00
8:01 am 08:01 Partly Cloudy with Mist and Fog 20 -6.7 19 -7.2 96 96 W 7 11 30.41 1030 4 6 0.00 0.00
8:53 am 08:53 Sunny 23 -5 21 -6.1 92 92 W 12 19 30.35 1028 9 14 0.00 0.00
9:53 am 09:53 Sunny 27 -2.8 24 -4.4 89 89 SW 10 17 30.33 1027 10 16 0.00 0.00
10:53 am 10:53 Sunny 32 0 25 -3.9 75 75 WSW 15 24 30.31 1027 10 16 0.00 0.00
11:53 am 11:53 Sunny 35 1.7 25 -3.9 67 67 SW 15 24 30.28 1026 10 16 0.00 0.00
12:53 pm 12:53 Sunny 36 2.2 25 -3.9 64 64 WSW 17 28 30.25 1025 10 16 0.00 0.00
1:53 pm 13:53 Sunny 37 2.8 28 -2.2 70 70 SSW 15 24 30.22 1023 10 16 0.00 0.00
2:53 pm 14:53 Sunny 39 3.9 28 -2.2 65 65 SW 18 30 30.18 1022 10 16 0.00 0.00
3:53 pm 15:53 Sunny 38 3.3 27 -2.8 65 65 S 16 26 30.16 1021 10 16 0.00 0.00
4:53 pm 16:53 Sunny 38 3.3 26 -3.3 62 62 S 13 20 30.13 1020 10 16 0.00 0.00
5:53 pm 17:53 Sunny 35 1.7 25 -3.9 67 67 S 13 20 30.10 1019 10 16 0.00 0.00
6:53 pm 18:53 Clear 33 0.6 25 -3.9 72 72 SSE 13 20 30.08 1019 10 16 0.00 0.00
7:53 pm 19:53 Clear 32 0 25 -3.9 75 75 S 16 26 30.05 1018 10 16 0.00 0.00
8:53 pm 20:53 Clear 32 0 25 -3.9 75 75 S 16 26 30.01 1016 10 16 0.00 0.00
9:53 pm 21:53 Clear 33 0.6 25 -3.9 72 72 S 20 31 29.99 1016 10 16 0.00 0.00
10:53 pm 22:53 Clear 33 0.6 26 -3.3 75 75 S 17 28 29.97 1015 10 16 0.00 0.00
11:53 pm 23:53 Clear 32 0 25 -3.9 75 75 S 21 33 29.94 1014 10 16 0.00 0.00

Powered by AerisWeather